THORAD AGENA D DEB, 4653

Orbit data source: Space-Track

THORAD AGENA D DEB, 4653 is space debris in SSO originally from a launch on Wed, 08 Apr 1970 UTC launched from the Air Force Western Test Range (AFWTR). Debris objects in space refer to the collection of defunct objects orbiting the Earth. Examples of debris include non-operational satellites, rocket bodies, and fragments generated from explosions, collisions, or faulty payload assembly.

Loading next visibility...
Identifier
4653, 1970-025AM
Orbit
SSO
Last TLE update
9 hours ago
Origin
Manufacturer
Unknown
Mission
Spacecraft
Bus & Motor
Unknown
Mass
Unknown
Launch date (UTC)
1970-04-08 (55 years ago)
Launch vehicle
Unknown
Launch site
Air Force Western Test Range (AFWTR)
Object type
Payload
Rocket body
Debris
Shape & HBR
Unknown
Radar Cross Section
Small (<0.1 m²)

Expand to show TLE details & history

TLE from 9 hours ago
0 THORAD AGENA D DEB
1 04653U 70025AM  25188.95193181  .00005604  00000-0  12447-2 0  9998
2 04653 100.0018  67.7909 0012838 220.5873 139.4364 14.57494667816892
Epoch: 2025-07-07T22:50Z
TLE epoch observation values (Epoch: 2025-07-07T22:50:46.908Z)
Latitude
0.00003°
Longitude
158.94155°
Altitude
711.106 km
Speed
7.496 km/s
True Right ascension
04h 31m 09s
True Declination
0° 00' 00"
Sunlit
Object was in daylight at epoch
Visualization orbit readout
Latitude
69.41689°
Longitude
7.22406°
Altitude
716.488 km
Speed
7.502 km/s
Apparent Right ascension
08h 51m 40s
Apparent Declination
43° 44' 56"
Sunlit
Object is in daylight
Visualization observer readout
Local Sidereal Time
19:40:22
Azimuth
347.178° N
Elevation
-4.804°
Doppler factor
1
Orbital elements
Apogee altitude
707.536 km
Perigee altitude
689.366 km
Semi-major axis
7,076.588 km
Eccentricity
0.00128
Inclination
100.0018°
RAAN
67.7909°
Arg. of periapsis
220.5873°
True anomaly
Unknown
Mean anomaly
139.4364°
Eccentric anomaly
Unknown
Mean motion
3.64592 °/min
Orbital period
98.74 mins
BSTAR
0.0012447
Loading maneuver chart data...
Loading SW <> Apogee altitude chart data...

THORAD AGENA D DEB Visibility forecast

Observer location: undefined°, undefined°

Span
Click to sort rows by Start time (UTC) header in descending order
Start Az.
Max El. time (UTC)
Max El. Az.
Max El.
End time (UTC)
End Az.
8 mins2025-07-08 15:26:47.531Z144.311° SSE2025-07-08 15:30:47.531Z73.636° E38.521°2025-07-08 15:34:47.531Z357.004° N
8 mins2025-07-09 05:04:47.531Z11.283° NNE2025-07-09 05:08:47.531Z234.056° WSW43.322°2025-07-09 05:12:47.531Z201.688° SSW
|